• In Hungary
  • List of Countries
  • For 7 days
  • Water Temperature
  • Satellite Maps
  • Weather Map
  • News
  • Weather Widgets
  • user-avatar
    Login

    Hourly Weather Ishdavletovo

    Today, 21 June, Thursday

    Time Temperature Precipitation Wind Pressure Humidity
    00:00 +17°C° 0.5 mm 3 mps 725 mmHg 96%
    01:00 +16°C° 0.5 mm 3 mps 725 mmHg 97%
    02:00 +16°C° 0 mm 3 mps 725 mmHg 97%
    03:00 +15°C° 0 mm 2 mps 725 mmHg 98%
    04:00 +14°C° 0 mm 2 mps 725 mmHg 98%
    05:00 +15°C° 0 mm 2 mps 725 mmHg 96%
    06:00 +15°C° 0 mm 2 mps 725 mmHg 93%
    07:00 +16°C° 0 mm 2 mps 726 mmHg 90%
    08:00 +17°C° 0 mm 3 mps 726 mmHg 76%
    09:00 +18°C° 0 mm 4 mps 726 mmHg 62%
    10:00 +20°C° 0 mm 6 mps 726 mmHg 50%
    11:00 +20°C° 0 mm 6 mps 726 mmHg 48%
    12:00 +21°C° 0 mm 6 mps 726 mmHg 46%
    13:00 +21°C° 0 mm 7 mps 726 mmHg 44%
    14:00 +21°C° 0.1 mm 7 mps 726 mmHg 46%
    15:00 +21°C° 0.1 mm 7 mps 726 mmHg 48%
    16:00 +21°C° 0 mm 6 mps 725 mmHg 53%
    17:00 +20°C° 0.2 mm 5 mps 725 mmHg 60%
    18:00 +17°C° 0.2 mm 5 mps 725 mmHg 68%
    19:00 +17°C° 0.2 mm 4 mps 725 mmHg 75%
    20:00 +15°C° 0.1 mm 4 mps 725 mmHg 79%
    21:00 +13°C° 0.1 mm 4 mps 725 mmHg 84%
    22:00 +12°C° 0.1 mm 3 mps 725 mmHg 88%
    23:00 +12°C° 0 mm 3 mps 725 mmHg 89%

    Tomorrow, 22 June, Friday

    Time Temperature Precipitation Wind Pressure Humidity
    00:00 +11°C° 0 mm 4 mps 725 mmHg 91%
    01:00 +11°C° 0 mm 4 mps 725 mmHg 92%
    02:00 +11°C° 0.1 mm 4 mps 725 mmHg 91%
    03:00 +10°C° 0.1 mm 5 mps 725 mmHg 90%
    04:00 +10°C° 0.1 mm 5 mps 725 mmHg 90%
    05:00 +12°C° 0.1 mm 5 mps 725 mmHg 90%
    06:00 +12°C° 0.1 mm 5 mps 725 mmHg 91%
    07:00 +12°C° 0.1 mm 5 mps 725 mmHg 91%
    08:00 +13°C° 0.1 mm 5 mps 725 mmHg 89%
    09:00 +13°C° 0.1 mm 5 mps 726 mmHg 87%
    10:00 +14°C° 0.1 mm 5 mps 726 mmHg 85%
    11:00 +14°C° 0.1 mm 5 mps 726 mmHg 82%
    12:00 +15°C° 0.1 mm 5 mps 727 mmHg 79%
    13:00 +16°C° 0.1 mm 5 mps 727 mmHg 76%
    14:00 +16°C° 0 mm 5 mps 728 mmHg 74%
    15:00 +17°C° 0 mm 5 mps 728 mmHg 72%
    16:00 +19°C° 0 mm 5 mps 728 mmHg 70%
    17:00 +18°C° 0 mm 4 mps 728 mmHg 74%
    18:00 +18°C° 0 mm 4 mps 728 mmHg 78%
    19:00 +17°C° 0 mm 4 mps 729 mmHg 82%
    20:00 +16°C° 0 mm 3 mps 729 mmHg 87%
    21:00 +16°C° 0 mm 3 mps 729 mmHg 92%
    22:00 +14°C° 0 mm 3 mps 729 mmHg 97%
    23:00 +14°C° 0 mm 2 mps 729 mmHg 97%

    Day after tomorrow, 23 June, Saturday

    Time Temperature Precipitation Wind Pressure Humidity
    00:00 +14°C° 0 mm 2 mps 729 mmHg 98%
    01:00 +14°C° 0 mm 2 mps 729 mmHg 98%
    02:00 +14°C° 0 mm 2 mps 729 mmHg 98%
    03:00 +14°C° 0 mm 2 mps 730 mmHg 98%
    04:00 +14°C° 0 mm 2 mps 730 mmHg 98%
    05:00 +15°C° 0 mm 2 mps 730 mmHg 96%
    06:00 +16°C° 0 mm 2 mps 730 mmHg 94%
    07:00 +16°C° 0 mm 2 mps 730 mmHg 92%
    08:00 +18°C° 0 mm 3 mps 731 mmHg 83%
    09:00 +20°C° 0 mm 3 mps 731 mmHg 73%
    10:00 +22°C° 0 mm 4 mps 731 mmHg 64%
    11:00 +23°C° 0.1 mm 4 mps 731 mmHg 60%
    12:00 +25°C° 0.1 mm 4 mps 731 mmHg 57%
    13:00 +25°C° 0.1 mm 5 mps 731 mmHg 53%
    14:00 +25°C° 0 mm 5 mps 731 mmHg 52%
    15:00 +25°C° 0 mm 5 mps 731 mmHg 52%
    16:00 +25°C° 0 mm 5 mps 731 mmHg 51%
    17:00 +23°C° 0 mm 4 mps 731 mmHg 57%
    18:00 +22°C° 0 mm 4 mps 731 mmHg 62%
    19:00 +21°C° 0 mm 3 mps 731 mmHg 68%
    20:00 +19°C° 0 mm 2 mps 731 mmHg 77%
    21:00 +17°C° 0 mm 2 mps 731 mmHg 85%
    22:00 +15°C° 0 mm 1 mps 731 mmHg 94%
    23:00 +14°C° 0 mm 1 mps 731 mmHg 94%

    24 June, Sunday

    Time Temperature Precipitation Wind Pressure Humidity
    00:00 +14°C° 0 mm 1 mps 731 mmHg 94%
    01:00 +13°C° 0 mm 1 mps 731 mmHg 95%
    02:00 +13°C° 0 mm 1 mps 731 mmHg 95%
    03:00 +13°C° 0 mm 1 mps 732 mmHg 95%
    04:00 +12°C° 0 mm 1 mps 732 mmHg 95%
    05:00 +15°C° 0 mm 1 mps 732 mmHg 89%
    06:00 +18°C° 0 mm 1 mps 732 mmHg 84%
    07:00 +20°C° 0 mm 1 mps 733 mmHg 78%
    08:00 +21°C° 0 mm 2 mps 733 mmHg 68%
    09:00 +24°C° 0 mm 3 mps 733 mmHg 57%
    10:00 +26°C° 0 mm 3 mps 733 mmHg 47%
    11:00 +27°C° 0 mm 4 mps 733 mmHg 45%
    12:00 +27°C° 0 mm 4 mps 733 mmHg 43%
    13:00 +28°C° 0 mm 4 mps 733 mmHg 41%
    14:00 +28°C° 0 mm 4 mps 733 mmHg 43%
    15:00 +28°C° 0 mm 4 mps 733 mmHg 44%
    16:00 +28°C° 0 mm 3 mps 733 mmHg 46%
    17:00 +27°C° 0 mm 3 mps 734 mmHg 53%
    18:00 +25°C° 0 mm 2 mps 734 mmHg 60%
    19:00 +24°C° 0 mm 2 mps 734 mmHg 67%
    20:00 +21°C° 0 mm 2 mps 734 mmHg 74%
    21:00 +20°C° 0 mm 1 mps 735 mmHg 82%
    22:00 +18°C° 0 mm 1 mps 735 mmHg 89%
    23:00 +18°C° 0 mm 1 mps 735 mmHg 90%

    25 June, Monday

    Time Temperature Precipitation Wind Pressure Humidity
    00:00 +16°C° 0 mm 1 mps 735 mmHg 91%
    01:00 +15°C° 0 mm 1 mps 735 mmHg 92%
    02:00 +15°C° 0 mm 1 mps 735 mmHg 92%
    03:00 +14°C° 0 mm 1 mps 735 mmHg 91%
    04:00 +13°C° 0 mm 0 mps 735 mmHg 91%
    05:00 +16°C° 0 mm 1 mps 736 mmHg 84%
    06:00 +19°C° 0 mm 1 mps 736 mmHg 76%
    07:00 +22°C° 0 mm 1 mps 736 mmHg 69%
    08:00 +23°C° 0 mm 2 mps 736 mmHg 62%
    09:00 +25°C° 0 mm 2 mps 736 mmHg 55%
    10:00 +27°C° 0 mm 3 mps 736 mmHg 48%
    11:00 +28°C° 0 mm 3 mps 736 mmHg 46%
    12:00 +28°C° 0 mm 3 mps 735 mmHg 44%
    13:00 +29°C° 0 mm 4 mps 735 mmHg 42%
    14:00 +29°C° 0 mm 4 mps 735 mmHg 43%
    15:00 +29°C° 0 mm 4 mps 735 mmHg 45%
    16:00 +29°C° 0 mm 4 mps 735 mmHg 46%
    17:00 +28°C° 0 mm 3 mps 735 mmHg 54%
    18:00 +27°C° 0 mm 3 mps 735 mmHg 61%
    19:00 +26°C° 0 mm 2 mps 735 mmHg 68%
    20:00 +24°C° 0.2 mm 2 mps 735 mmHg 76%
    21:00 +21°C° 0.2 mm 2 mps 735 mmHg 84%
    22:00 +19°C° 0.2 mm 2 mps 735 mmHg 93%
    23:00 +19°C° 0 mm 2 mps 734 mmHg 93%

    26 June, Tuesday

    Time Temperature Precipitation Wind Pressure Humidity
    00:00 +18°C° 0 mm 2 mps 734 mmHg 94%
    01:00 +19°C° 0 mm 1 mps 734 mmHg 95%
    02:00 +19°C° 0 mm 1 mps 734 mmHg 95%
    03:00 +18°C° 0 mm 1 mps 734 mmHg 95%
    04:00 +18°C° 0 mm 1 mps 734 mmHg 95%
    05:00 +19°C° 0 mm 2 mps 734 mmHg 91%
    06:00 +20°C° 0 mm 2 mps 735 mmHg 87%
    07:00 +23°C° 0 mm 2 mps 735 mmHg 84%
    08:00 +24°C° 0.1 mm 3 mps 735 mmHg 71%
    09:00 +26°C° 0.1 mm 3 mps 735 mmHg 58%
    10:00 +27°C° 0.1 mm 3 mps 735 mmHg 45%
    11:00 +28°C° 0 mm 3 mps 735 mmHg 43%
    12:00 +29°C° 0 mm 3 mps 735 mmHg 41%
    13:00 +29°C° 0 mm 3 mps 735 mmHg 38%
    14:00 +29°C° 0 mm 3 mps 735 mmHg 39%
    15:00 +29°C° 0 mm 3 mps 734 mmHg 41%
    16:00 +29°C° 0 mm 3 mps 734 mmHg 42%
    17:00 +28°C° 0 mm 2 mps 734 mmHg 50%
    18:00 +27°C° 0 mm 2 mps 734 mmHg 57%
    19:00 +26°C° 0 mm 2 mps 734 mmHg 65%
    20:00 +24°C° 0 mm 2 mps 734 mmHg 71%
    21:00 +21°C° 0 mm 2 mps 734 mmHg 77%
    22:00 +19°C° 0 mm 2 mps 734 mmHg 83%
    23:00 +18°C° 0 mm 2 mps 734 mmHg 85%
    Show more